Location: Squirrel Cove
(50.1074°N, 124.9139°W)
Time: 17:51:08
(UTC-07:00)

Envisat - Pass Details

Date: 19 September 2024
Orbit: 762 x 764 km, 98.3° (Epoch: 11 October)

Event Time Altitude Azimuth Distance (km) Brightness Sun altitude
Rises 06:14:26 0° 4° (N) 3,240 6.5 -8.5°
Reaches altitude 10° 06:17:21 10° 347° (NNW) 2,309 5.5 -8.0°
Maximum altitude 06:20:48 19° 304° (WNW) 1,771 4.5 -7.5°
Drops below altitude 10° 06:24:15 10° 260° (W) 2,298 4.8 -6.9°
Enters shadow 06:24:46 - 256° (WSW) 2,445 4.9 -6.8°
